Regional Weather Roundup
Issued by NWS Sterling, VA

Home | Current Version | Previous Version | Text Only | Print | Product List | Glossary Off
Versions: 1 2 3 4 5 6 7 8 9 10 11 12 13 14 15 16 17 18 19 20 21 22 23 24 25 26 27 28 29 30 31 32 33 34 35 36 37 38 39 40 41 42 43 44 45 46 47 48 49 50

000
ASUS41 KLWX 251310
RWRLWX

REGIONAL WEATHER ROUNDUP
NATIONAL WEATHER SERVICE BALTIMORE MD/WASHINGTON DC
900 AM EDT SUN SEP 25 2016

Note: "FAIR" indicates few or no clouds below 12,000 feet
with no significant weather and/or obstructions to visibility.
 TC=TEMPERATURE CELSIUS

 * =Non NWS site. Station does not report precipitation (e.g. rain,
    snow, etc.), thunder, or fog.

DCZ001-MDZ009-015-VAZ040>042-051-053>054-251400-
WASHINGTON METRO

CITY           SKY/WX    TMP DP  RH WIND       PRES   REMARKS
WASHINGTON NAT MOSUNNY   62  47  57 NE10      30.23S
DULLES         MOSUNNY   60  45  57 NE6       30.23S
ANDREWS AFB    SUNNY     59  48  67 NE7       30.21S
FT BELVOIR     SUNNY     62  46  55 CALM      30.22S
QUANTICO         N/A     64  51  62 NE10      30.23R
COLLEGE PARK*  SUNNY     57  45  62 N5        30.22S
LEESBURG*      SUNNY     59  50  72 NE5       30.25R
MANASSAS*      PTSUNNY   61  52  72 N6        30.22F
GAITHERSBURG*  SUNNY     55  45  67 NE6       30.27R

$$

MDZ006>007-011-014-251400-
BALTIMORE METRO

CITY           SKY/WX    TMP DP  RH WIND       PRES   REMARKS
BWI AIRPORT    MOSUNNY   60  45  57 VRB5      30.22S
MD SCIENCE CTR   N/A     61  42  49 MISG      30.23S
MARTIN STATE   SUNNY     59  52  77 CALM      30.23F
ANNAPOLIS      SUNNY     65  51  60 NE7       30.21S
FORT MEADE*    SUNNY     55  46  71 N3        30.24F

$$

MDZ012-015-019>023-251400-
MARYLAND EASTERN SHORE

CITY           SKY/WX    TMP DP  RH WIND       PRES   REMARKS
OCEAN CITY     SUNNY     65  55  70 N8        30.18S
SALISBURY      SUNNY     61  55  81 N6        30.19S
BAY BRIDGE AP* SUNNY     61  46  59 MISG      30.21F
CAMBRIDGE*     SUNNY     59  48  67 NE3       30.20S
EASTON*        SUNNY     59  48  67 NE6       30.24S

$$

MDZ017>025-251400-
SOUTHERN MARYLAND

CITY           SKY/WX    TMP DP  RH WIND       PRES   REMARKS
PATUXENT RIVER MOSUNNY   64  49  57 NE12      30.20S
ST INIGOES     SUNNY     61  53  75 NE8       30.20R
LEONARDTOWN*   SUNNY     61  50  67 NE3       30.22S

$$

MDZ003>005-251400-
NORTH CENTRAL MARYLAND

CITY           SKY/WX    TMP DP  RH WIND       PRES   REMARKS
FREDERICK*     SUNNY     55  50  82 NE7       30.26F
HAGERSTOWN APT SUNNY     56  45  66 N5        30.23S

$$

MDZ501>502-251400-
WESTERN MARYLAND

CITY           SKY/WX    TMP DP  RH WIND       PRES   REMARKS
OAKLAND*       SUNNY     50  43  76 SE8G16    30.22S
CUMBERLAND*    PTSUNNY   55  50  82 N3        30.27S

$$

VAZ025>031-251400-
SHENANDOAH VALLEY

CITY           SKY/WX    TMP DP  RH WIND       PRES   REMARKS
WINCHESTER*    CLOUDY    59  45  58 CALM      30.23S
FRONT ROYAL*   CLOUDY    55  48  76 CALM      30.23R
LURAY*         CLOUDY    57  50  77 NE5       30.22S
NEW MARKET*    CLOUDY   N/A N/A N/A N6        30.22R
STAUNTON*      DRIZZLE   60  59  97 CALM      30.23S
WAYNESBORO*    CLOUDY    60  57  90 MISG      30.22S

$$

WVZ021-048>050-054>055-251400-
EASTERN WEST VIRGINIA PANHANDLE

CITY           SKY/WX    TMP DP  RH WIND       PRES   REMARKS
MARTINSBURG    MOSUNNY   58  45  62 NE6       30.23S
PETERSBURG*    CLOUDY    61  52  72 CALM      30.22S

$$

VAZ036>039-050-251400-
CENTRAL FOOTHILLS

CITY           SKY/WX    TMP DP  RH WIND       PRES   REMARKS
CHARLOTTESVILL CLOUDY    66  60  81 N3        30.20S
CULPEPER*      CLOUDY    60  51  71 N3        30.24R
ORANGE*          N/A     61  61 100 N5        30.23R FOG
GORDONSVILLE*  CLOUDY    64  63  94 NE5       30.20R
WARRENTON*     CLOUDY    60  47  61 NE6       30.22S

$$

VAZ055>057-251400-
NORTH AND CENTRAL PIEDMONT

CITY           SKY/WX    TMP DP  RH WIND       PRES   REMARKS
FREDERICKSBRG* PTSUNNY   63  55  74 NE5       30.20F
STAFFORD*      CLOUDY    62  55  80 CALM      30.26S

$$

NCZ024-NYZ072-PAZ021-071-VAZ022-071-251400-
OTHER REGIONAL OBSERVATIONS

CITY           SKY/WX    TMP DP  RH WIND       PRES   REMARKS
NEW YORK CITY  SUNNY     57  42  57 CALM      30.23S
PHILADELPHIA   MOSUNNY   60  41  49 N9        30.22S
PITTSBURGH     SUNNY     53  48  83 E6        30.20R
ROANOKE        CLOUDY    68  63  84 E6        30.21S
RICHMOND       PTSUNNY   66  58  75 NE9       30.19S
RALEIGH        CLOUDY    71  67  87 E9        30.15F

$$

ANZ530>537-251400-
MARINE OBSERVATIONS

STATION/POSITION TIME  TEMP    WIND        PRES
                       AIR SEA DIR/SP/G
                 (UTC) (F)     (DEG/KT/KT) (MB)
THOMAS PT LIGHT  1300   62 75   50/ 11/ 13 1024.3R
BALT KEY BRIDGE  1248   59      20/  6/  8 1023.3F
COVE POINT       1248   61      50/ 12/ 17 1023.3R
LEWISETTA        1248   66 74   60/  8/ 12 1022.2R
SOLOMONS ISLAND  1242   63 76   50/ 10/ 11   N/A
PINEY POINT      1248           70/  8/ 10   N/A

$$




USA.gov is the U.S. government's official web portal to all federal, state and local government web resources and services.